| time (UTC) | temp F | wind direction | speed MPH | gust MPH | rain 1hr in | rain 24hr in | rain mn in | humidity % | barometer mb |
| 20260508060707 | 50 | 4 | 3.0 | 5.0 | 0.00 | 0.00 | 0.00 | 55 | 1024.6 |
| 20260508060005 | 49 | 250 | 5.0 | 8.0 | 0.00 | 0.00 | 0.00 | 56 | 1024.7 |
| 20260508055305 | 49 | 21 | 6.0 | 7.0 | 0.00 | 0.00 | 0.00 | 57 | 1024.5 |
| 20260508054612 | 49 | 253 | 3.0 | 7.0 | 0.00 | 0.00 | 0.00 | 59 | 1024.5 |
| 20260508053909 | 48 | 265 | 3.0 | 5.0 | 0.00 | 0.00 | 0.00 | 61 | 1024.5 |
| 20260508053207 | 47 | 261 | 5.0 | 9.0 | 0.00 | 0.00 | 0.00 | 62 | 1024.5 |
| 20260508052505 | 46 | 334 | 5.0 | 5.0 | 0.00 | 0.00 | 0.00 | 63 | 1024.3 |
| 20260508051804 | 46 | 311 | 2.0 | 5.0 | 0.00 | 0.00 | 0.00 | 65 | 1024.2 |
| 20260508051102 | 45 | 250 | 1.0 | 5.0 | 0.00 | 0.00 | 0.00 | 65 | 1024.1 |
| 20260508050411 | 45 | 335 | 2.0 | 5.0 | 0.00 | 0.00 | 0.00 | 67 | 1023.9 |
| 20260508045709 | 44 | 288 | 3.0 | 5.0 | 0.00 | 0.00 | 0.00 | 68 | 1023.9 |
| 20260508045007 | 43 | 330 | 6.0 | 8.0 | 0.00 | 0.00 | 0.00 | 69 | 1023.8 |
| 20260508044303 | 42 | 5 | 5.0 | 8.0 | 0.00 | 0.00 | 0.00 | 69 | 1023.8 |
| 20260508043601 | 42 | 256 | 5.0 | 10.0 | 0.00 | 0.00 | 0.00 | 69 | 1023.7 |
| 20260508042912 | 42 | 344 | 5.0 | 9.0 | 0.00 | 0.00 | 0.00 | 69 | 1023.7 |
| 20260508042211 | 42 | 333 | 3.0 | 9.0 | 0.00 | 0.00 | 0.00 | 70 | 1023.5 |
| 20260508041509 | 41 | 265 | 3.0 | 7.0 | 0.00 | 0.00 | 0.00 | 70 | 1023.5 |
| 20260508040805 | 41 | 8 | 3.0 | 6.0 | 0.00 | 0.00 | 0.00 | 70 | 1023.3 |
| 20260508040104 | 40 | 253 | 3.0 | 5.0 | 0.00 | 0.00 | 0.00 | 70 | 1023.2 |
| 20260508035403 | 40 | 284 | 5.0 | 7.0 | 0.00 | 0.00 | 0.00 | 71 | 1023.2 |
| 20260508034701 | 39 | 313 | 7.0 | 6.0 | 0.00 | 0.00 | 0.00 | 72 | 1023.1 |
| 20260508034011 | 39 | 253 | 3.0 | 6.0 | 0.00 | 0.00 | 0.00 | 72 | 1023.1 |
| 20260508033308 | 38 | 250 | 1.0 | 5.0 | 0.00 | 0.00 | 0.00 | 72 | 1023.0 |
| 20260508032606 | 38 | 252 | 2.0 | 3.0 | 0.00 | 0.00 | 0.00 | 73 | 1022.9 |
| 20260508031905 | 37 | 74 | 2.0 | 3.0 | 0.00 | 0.00 | 0.00 | 74 | 1023.0 |
| 20260508031204 | 36 | 248 | 2.0 | 3.0 | 0.00 | 0.00 | 0.00 | 75 | 1022.9 |
| 20260508030502 | 36 | 248 | 1.0 | 6.0 | 0.00 | 0.00 | 0.00 | 76 | 1022.9 |
| 20260508025811 | 35 | 249 | 1.0 | 3.0 | 0.00 | 0.00 | 0.00 | 76 | 1022.8 |
| 20260508025109 | 34 | 248 | 1.0 | 2.0 | 0.00 | 0.00 | 0.00 | 76 | 1022.8 |
| 20260508024406 | 34 | 248 | 0.0 | 1.0 | 0.00 | 0.00 | 0.00 | 76 | 1022.7 |
| 20260508023704 | 34 | 248 | 1.0 | 5.0 | 0.00 | 0.00 | 0.00 | 76 | 1022.5 |
| 20260508023002 | 33 | 248 | 1.0 | 2.0 | 0.00 | 0.00 | 0.00 | 75 | 1022.4 |
| 20260508022312 | 33 | 248 | 0.0 | 0.0 | 0.00 | 0.00 | 0.00 | 75 | 1022.3 |
| 20260508021611 | 34 | 248 | 0.0 | 2.0 | 0.00 | 0.00 | 0.00 | 74 | 1022.2 |
| 20260508020909 | 34 | 248 | 1.0 | 3.0 | 0.00 | 0.00 | 0.00 | 75 | 1022.1 |
| 20260508020206 | 34 | 260 | 0.0 | 3.0 | 0.00 | 0.00 | 0.00 | 74 | 1022.1 |
| 20260508015505 | 34 | 248 | 1.0 | 3.0 | 0.00 | 0.00 | 0.00 | 74 | 1022.0 |
| 20260508014802 | 34 | 248 | 1.0 | 2.0 | 0.00 | 0.00 | 0.00 | 73 | 1021.9 |
| 20260508014112 | 35 | 248 | 0.0 | 1.0 | 0.00 | 0.00 | 0.00 | 72 | 1021.8 |
| 20260508013410 | 35 | 248 | 1.0 | 2.0 | 0.00 | 0.00 | 0.00 | 72 | 1021.8 |
| 20260508012707 | 35 | 11 | 5.0 | 6.0 | 0.00 | 0.00 | 0.00 | 73 | 1021.8 |
| 20260508012005 | 35 | 237 | 1.0 | 3.0 | 0.00 | 0.00 | 0.00 | 71 | 1021.6 |
| 20260508011302 | 35 | 248 | 1.0 | 2.0 | 0.00 | 0.00 | 0.00 | 70 | 1021.5 |
| 20260508010611 | 35 | 248 | 0.0 | 2.0 | 0.00 | 0.00 | 0.00 | 69 | 1021.5 |
| 20260508005910 | 36 | 248 | 1.0 | 1.0 | 0.00 | 0.00 | 0.00 | 69 | 1021.4 |
| 20260508005207 | 36 | 248 | 0.0 | 2.0 | 0.00 | 0.00 | 0.00 | 68 | 1021.4 |
| 20260508004505 | 37 | 248 | 1.0 | 2.0 | 0.00 | 0.00 | 0.00 | 68 | 1021.4 |
| 20260508003802 | 37 | 255 | 2.0 | 6.0 | 0.00 | 0.00 | 0.00 | 68 | 1021.2 |
| 20260508003112 | 37 | 250 | 2.0 | 5.0 | 0.00 | 0.00 | 0.00 | 68 | 1021.2 |
| 20260508002410 | 37 | 255 | 2.0 | 6.0 | 0.00 | 0.00 | 0.00 | 68 | 1021.1 |
| 20260508001707 | 37 | 248 | 1.0 | 1.0 | 0.00 | 0.00 | 0.00 | 67 | 1020.9 |
| 20260508001005 | 37 | 248 | 3.0 | 3.0 | 0.00 | 0.00 | 0.00 | 66 | 1020.8 |
| 20260508000301 | 37 | 258 | 3.0 | 5.0 | 0.00 | 0.00 | 0.00 | 67 | 1020.7 |
| 20260507235612 | 38 | 248 | 0.0 | 2.0 | 0.00 | 0.00 | 0.00 | 66 | 1020.6 |
| 20260507234909 | 37 | 263 | 1.0 | 3.0 | 0.00 | 0.00 | 0.00 | 65 | 1020.5 |
| 20260507234206 | 37 | 248 | 1.0 | 3.0 | 0.00 | 0.00 | 0.00 | 66 | 1020.4 |
| 20260507233504 | 37 | 293 | 2.0 | 3.0 | 0.00 | 0.00 | 0.00 | 65 | 1020.3 |
| 20260507232802 | 37 | 248 | 1.0 | 3.0 | 0.00 | 0.00 | 0.00 | 65 | 1020.2 |
| 20260507232111 | 37 | 243 | 2.0 | 3.0 | 0.00 | 0.00 | 0.00 | 66 | 1020.1 |
| 20260507231409 | 37 | 248 | 1.0 | 1.0 | 0.00 | 0.00 | 0.00 | 66 | 1019.9 |
| 20260507230706 | 37 | 248 | 0.0 | 3.0 | 0.00 | 0.00 | 0.00 | 65 | 1019.8 |
| 20260507230005 | 37 | 248 | 0.0 | 1.0 | 0.00 | 0.00 | 0.00 | 65 | 1019.8 |
| 20260507225306 | 37 | 248 | 0.0 | 1.0 | 0.00 | 0.00 | 0.00 | 64 | 1019.7 |
| 20260507224602 | 37 | 248 | 0.0 | 1.0 | 0.00 | 0.00 | 0.00 | 64 | 1019.6 |
| 20260507223901 | 37 | 248 | 1.0 | 5.0 | 0.00 | 0.00 | 0.00 | 64 | 1019.6 |
| 20260507223211 | 37 | 248 | 0.0 | 0.0 | 0.00 | 0.00 | 0.00 | 62 | 1019.5 |
| 20260507222510 | 37 | 248 | 0.0 | 0.0 | 0.00 | 0.00 | 0.00 | 62 | 1019.4 |
| 20260507221808 | 37 | 248 | 0.0 | 0.0 | 0.00 | 0.00 | 0.00 | 62 | 1019.4 |
| 20260507221105 | 37 | 248 | 0.0 | 0.0 | 0.00 | 0.00 | 0.00 | 62 | 1019.4 |
| 20260507220403 | 36 | 248 | 1.0 | 0.0 | 0.00 | 0.00 | 0.00 | 63 | 1019.1 |
| 20260507215702 | 36 | 248 | 0.0 | 1.0 | 0.00 | 0.00 | 0.00 | 62 | 1019.0 |
| 20260507215012 | 36 | 248 | 0.0 | 0.0 | 0.00 | 0.00 | 0.00 | 62 | 1018.9 |
| 20260507214311 | 36 | 248 | 0.0 | 2.0 | 0.00 | 0.00 | 0.00 | 61 | 1018.8 |
| 20260507213607 | 36 | 248 | 0.0 | 1.0 | 0.00 | 0.00 | 0.00 | 61 | 1018.7 |
| 20260507212907 | 36 | 248 | 1.0 | 1.0 | 0.00 | 0.00 | 0.00 | 60 | 1018.6 |
| 20260507212203 | 36 | 248 | 1.0 | 2.0 | 0.00 | 0.00 | 0.00 | 59 | 1018.5 |
| 20260507211501 | 37 | 248 | 0.0 | 0.0 | 0.00 | 0.00 | 0.00 | 59 | 1018.3 |
| 20260507210811 | 37 | 248 | 0.0 | 0.0 | 0.00 | 0.00 | 0.00 | 58 | 1018.2 |
| 20260507210107 | 37 | 248 | 0.0 | 0.0 | 0.00 | 0.00 | 0.00 | 58 | 1018.2 |
| 20260507205406 | 37 | 248 | 0.0 | 0.0 | 0.00 | 0.00 | 0.00 | 57 | 1018.1 |
| 20260507204704 | 37 | 248 | 0.0 | 0.0 | 0.00 | 0.00 | 0.00 | 57 | 1018.0 |
| 20260507204002 | 37 | 248 | 0.0 | 1.0 | 0.00 | 0.00 | 0.00 | 57 | 1017.9 |
| 20260507203312 | 38 | 248 | 0.0 | 0.0 | 0.00 | 0.00 | 0.00 | 57 | 1017.9 |
| 20260507202611 | 38 | 248 | 0.0 | 0.0 | 0.00 | 0.00 | 0.00 | 57 | 1017.8 |
| 20260507201909 | 38 | 248 | 0.0 | 0.0 | 0.00 | 0.00 | 0.00 | 57 | 1017.7 |
| 20260507201207 | 38 | 248 | 0.0 | 1.0 | 0.00 | 0.00 | 0.00 | 56 | 1017.7 |
| 20260507200504 | 38 | 248 | 0.0 | 0.0 | 0.00 | 0.00 | 0.00 | 56 | 1017.5 |
| 20260507195802 | 38 | 248 | 0.0 | 0.0 | 0.00 | 0.00 | 0.00 | 56 | 1017.6 |
| 20260507195111 | 38 | 248 | 0.0 | 0.0 | 0.00 | 0.00 | 0.00 | 55 | 1017.5 |
| 20260507194410 | 38 | 248 | 0.0 | 1.0 | 0.00 | 0.00 | 0.00 | 53 | 1017.5 |
| 20260507193708 | 38 | 248 | 0.0 | 0.0 | 0.00 | 0.00 | 0.00 | 52 | 1017.3 |
| 20260507193006 | 38 | 248 | 0.0 | 0.0 | 0.00 | 0.00 | 0.00 | 51 | 1017.3 |
| 20260507192306 | 39 | 248 | 0.0 | 0.0 | 0.00 | 0.00 | 0.00 | 51 | 1017.3 |
| 20260507191602 | 39 | 248 | 0.0 | 0.0 | 0.00 | 0.00 | 0.00 | 51 | 1017.1 |
| 20260507190911 | 40 | 248 | 0.0 | 0.0 | 0.00 | 0.00 | 0.00 | 50 | 1017.0 |
| 20260507190209 | 40 | 248 | 0.0 | 0.0 | 0.00 | 0.00 | 0.00 | 49 | 1017.0 |
| 20260507185506 | 41 | 248 | 0.0 | 0.0 | 0.00 | 0.00 | 0.00 | 48 | 1016.9 |
| 20260507184804 | 41 | 248 | 0.0 | 0.0 | 0.00 | 0.00 | 0.00 | 48 | 1016.9 |
| 20260507184101 | 42 | 248 | 0.0 | 0.0 | 0.00 | 0.00 | 0.00 | 47 | 1016.8 |
| 20260507183411 | 43 | 248 | 1.0 | 1.0 | 0.00 | 0.00 | 0.00 | 47 | 1016.7 |
| 20260507182710 | 43 | 248 | 0.0 | 0.0 | 0.00 | 0.00 | 0.00 | 47 | 1016.6 |
| 20260507182008 | 43 | 248 | 0.0 | 1.0 | 0.00 | 0.00 | 0.00 | 46 | 1016.6 |
| 20260507181306 | 44 | 248 | 0.0 | 0.0 | 0.00 | 0.00 | 0.00 | 45 | 1016.6 |
| 20260507180603 | 45 | 248 | 0.0 | 1.0 | 0.00 | 0.00 | 0.00 | 45 | 1016.5 |
| 20260507175913 | 46 | 248 | 0.0 | 1.0 | 0.00 | 0.00 | 0.00 | 44 | 1016.4 |
| 20260507175211 | 47 | 248 | 0.0 | 1.0 | 0.00 | 0.00 | 0.00 | 44 | 1016.4 |
| 20260507174507 | 47 | 248 | 0.0 | 2.0 | 0.00 | 0.00 | 0.00 | 44 | 1016.4 |
| 20260507173806 | 48 | 248 | 0.0 | 1.0 | 0.00 | 0.00 | 0.00 | 44 | 1016.3 |
| 20260507173104 | 48 | 248 | 0.0 | 2.0 | 0.00 | 0.00 | 0.00 | 43 | 1016.2 |
| 20260507172401 | 49 | 248 | 0.0 | 2.0 | 0.00 | 0.00 | 0.00 | 43 | 1016.2 |
| 20260507171711 | 49 | 248 | 0.0 | 0.0 | 0.00 | 0.00 | 0.00 | 43 | 1016.1 |
| 20260507171008 | 49 | 248 | 1.0 | 1.0 | 0.00 | 0.00 | 0.00 | 43 | 1016.1 |
| 20260507170306 | 49 | 248 | 0.0 | 0.0 | 0.00 | 0.00 | 0.00 | 43 | 1016.2 |
| 20260507165604 | 49 | 248 | 1.0 | 2.0 | 0.00 | 0.00 | 0.00 | 43 | 1016.0 |
| 20260507164901 | 49 | 248 | 0.0 | 0.0 | 0.00 | 0.00 | 0.00 | 42 | 1015.8 |
| 20260507164212 | 49 | 248 | 0.0 | 0.0 | 0.00 | 0.00 | 0.00 | 42 | 1015.8 |
| 20260507163510 | 50 | 248 | 0.0 | 1.0 | 0.00 | 0.00 | 0.00 | 41 | 1015.9 |
| 20260507162809 | 50 | 248 | 0.0 | 1.0 | 0.00 | 0.00 | 0.00 | 41 | 1015.7 |
| 20260507162108 | 50 | 248 | 0.0 | 0.0 | 0.00 | 0.00 | 0.00 | 40 | 1015.6 |
| 20260507161405 | 51 | 248 | 0.0 | 1.0 | 0.00 | 0.00 | 0.00 | 39 | 1015.6 |
| 20260507160702 | 52 | 248 | 0.0 | 1.0 | 0.00 | 0.00 | 0.00 | 37 | 1015.6 |
| 20260507160011 | 53 | 255 | 3.0 | 3.0 | 0.00 | 0.00 | 0.00 | 37 | 1015.5 |
| 20260507155310 | 54 | 251 | 0.0 | 3.0 | 0.00 | 0.00 | 0.00 | 34 | 1015.4 |
| 20260507154609 | 54 | 248 | 2.0 | 3.0 | 0.00 | 0.00 | 0.00 | 34 | 1015.4 |
| 20260507153908 | 55 | 31 | 1.0 | 2.0 | 0.00 | 0.00 | 0.00 | 33 | 1015.3 |
| 20260507153207 | 55 | 258 | 2.0 | 7.0 | 0.00 | 0.00 | 0.00 | 33 | 1015.4 |
| 20260507152504 | 55 | 269 | 1.0 | 3.0 | 0.00 | 0.00 | 0.00 | 33 | 1015.3 |
| 20260507151802 | 55 | 251 | 2.0 | 3.0 | 0.00 | 0.00 | 0.00 | 33 | 1015.3 |
| 20260507151111 | 56 | 256 | 2.0 | 6.0 | 0.00 | 0.00 | 0.00 | 32 | 1015.2 |
| 20260507150408 | 57 | 353 | 2.0 | 5.0 | 0.00 | 0.00 | 0.00 | 32 | 1015.3 |
| 20260507145706 | 58 | 247 | 1.0 | 2.0 | 0.00 | 0.00 | 0.00 | 30 | 1015.2 |
| 20260507145004 | 62 | 251 | 2.0 | 3.0 | 0.00 | 0.00 | 0.00 | 28 | 1015.3 |
| 20260507144302 | 68 | 248 | 3.0 | 5.0 | 0.00 | 0.00 | 0.00 | 27 | 1015.2 |
| 20260507143611 | 69 | 126 | 2.0 | 3.0 | 0.00 | 0.00 | 0.00 | 27 | 1015.1 |
| 20260507142908 | 66 | 296 | 3.0 | 3.0 | 0.00 | 0.00 | 0.00 | 27 | 1015.1 |
| 20260507142205 | 67 | 288 | 3.0 | 5.0 | 0.00 | 0.00 | 0.00 | 26 | 1015.2 |
| 20260507141504 | 74 | 248 | 2.0 | 3.0 | 0.00 | 0.00 | 0.00 | 25 | 1015.2 |
| 20260507140812 | 76 | 265 | 3.0 | 3.0 | 0.00 | 0.00 | 0.00 | 25 | 1015.2 |
| 20260507140110 | 77 | 356 | 2.0 | 5.0 | 0.00 | 0.00 | 0.00 | 25 | 1015.2 |
| 20260507135407 | 73 | 254 | 3.0 | 5.0 | 0.00 | 0.00 | 0.00 | 26 | 1015.3 |
| 20260507134705 | 68 | 23 | 3.0 | 5.0 | 0.00 | 0.00 | 0.00 | 28 | 1015.4 |
| 20260507134004 | 63 | 307 | 3.0 | 6.0 | 0.00 | 0.00 | 0.00 | 29 | 1015.4 |
| 20260507133302 | 63 | 248 | 1.0 | 3.0 | 0.00 | 0.00 | 0.00 | 29 | 1015.3 |
| 20260507132601 | 64 | 232 | 3.0 | 6.0 | 0.00 | 0.00 | 0.00 | 29 | 1015.2 |
| 20260507131912 | 61 | 248 | 1.0 | 3.0 | 0.00 | 0.00 | 0.00 | 31 | 1015.1 |
| 20260507131211 | 61 | 258 | 2.0 | 3.0 | 0.00 | 0.00 | 0.00 | 31 | 1015.3 |
| 20260507130510 | 62 | 252 | 1.0 | 3.0 | 0.00 | 0.00 | 0.00 | 29 | 1015.3 |
| 20260507125807 | 66 | 248 | 2.0 | 2.0 | 0.00 | 0.00 | 0.00 | 26 | 1015.4 |
| 20260507125105 | 74 | 244 | 3.0 | 3.0 | 0.00 | 0.00 | 0.00 | 25 | 1015.4 |
| 20260507124403 | 72 | 248 | 2.0 | 5.0 | 0.00 | 0.00 | 0.00 | 26 | 1015.4 |
| 20260507123712 | 63 | 248 | 1.0 | 1.0 | 0.00 | 0.00 | 0.00 | 30 | 1015.4 |
| 20260507123012 | 64 | 248 | 3.0 | 5.0 | 0.00 | 0.00 | 0.00 | 28 | 1015.4 |
| 20260507122308 | 66 | 248 | 2.0 | 2.0 | 0.00 | 0.00 | 0.00 | 28 | 1015.4 |
| 20260507121606 | 68 | 248 | 1.0 | 1.0 | 0.00 | 0.00 | 0.00 | 27 | 1015.4 |
| 20260507120904 | 74 | 248 | 0.0 | 0.0 | 0.00 | 0.00 | 0.00 | 25 | 1015.5 |
| 20260507120203 | 76 | 241 | 1.0 | 1.0 | 0.00 | 0.00 | 0.00 | 26 | 1015.5 |
| 20260507115501 | 72 | 259 | 1.0 | 2.0 | 0.00 | 0.00 | 0.00 | 26 | 1015.5 |
| 20260507114810 | 70 | 29 | 2.0 | 2.0 | 0.00 | 0.00 | 0.00 | 27 | 1015.5 |
| 20260507114109 | 72 | 253 | 1.0 | 2.0 | 0.00 | 0.00 | 0.00 | 27 | 1015.5 |
| 20260507113407 | 70 | 248 | 1.0 | 1.0 | 0.00 | 0.00 | 0.00 | 29 | 1015.6 |
| 20260507112704 | 67 | 254 | 2.0 | 5.0 | 0.00 | 0.00 | 0.00 | 30 | 1015.5 |
| 20260507112001 | 61 | 358 | 5.0 | 5.0 | 0.00 | 0.00 | 0.00 | 33 | 1015.6 |
| 20260507111311 | 58 | 248 | 1.0 | 2.0 | 0.00 | 0.00 | 0.00 | 33 | 1015.6 |
| 20260507110609 | 59 | 331 | 2.0 | 3.0 | 0.00 | 0.00 | 0.00 | 32 | 1015.6 |
| 20260507105907 | 57 | 248 | 0.0 | 2.0 | 0.00 | 0.00 | 0.00 | 33 | 1015.6 |
| 20260507105204 | 57 | 250 | 0.0 | 2.0 | 0.00 | 0.00 | 0.00 | 33 | 1015.5 |
| 20260507104503 | 56 | 248 | 0.0 | 1.0 | 0.00 | 0.00 | 0.00 | 33 | 1015.6 |
| 20260507103801 | 59 | 248 | 0.0 | 2.0 | 0.00 | 0.00 | 0.00 | 32 | 1015.5 |
| 20260507103111 | 62 | 354 | 3.0 | 5.0 | 0.00 | 0.00 | 0.00 | 32 | 1015.5 |
| 20260507102409 | 60 | 304 | 2.0 | 7.0 | 0.00 | 0.00 | 0.00 | 33 | 1015.6 |
| 20260507101705 | 58 | 279 | 3.0 | 5.0 | 0.00 | 0.00 | 0.00 | 34 | 1015.7 |
| 20260507101003 | 57 | 248 | 1.0 | 3.0 | 0.00 | 0.00 | 0.00 | 33 | 1015.7 |
| 20260507100302 | 58 | 248 | 2.0 | 3.0 | 0.00 | 0.00 | 0.00 | 32 | 1015.6 |
| 20260507095612 | 60 | 249 | 1.0 | 1.0 | 0.00 | 0.00 | 0.00 | 32 | 1015.7 |
| 20260507094910 | 61 | 248 | 2.0 | 3.0 | 0.00 | 0.00 | 0.00 | 31 | 1015.7 |
| 20260507094208 | 64 | 243 | 2.0 | 3.0 | 0.00 | 0.00 | 0.00 | 30 | 1015.7 |
| 20260507093507 | 64 | 286 | 2.0 | 5.0 | 0.00 | 0.00 | 0.00 | 30 | 1015.7 |
| 20260507092804 | 63 | 248 | 3.0 | 5.0 | 0.00 | 0.00 | 0.00 | 31 | 1015.8 |
| 20260507092101 | 62 | 248 | 2.0 | 2.0 | 0.00 | 0.00 | 0.00 | 29 | 1015.9 |
| 20260507091412 | 63 | 238 | 2.0 | 3.0 | 0.00 | 0.00 | 0.00 | 29 | 1015.7 |
| 20260507090708 | 65 | 284 | 3.0 | 8.0 | 0.00 | 0.00 | 0.00 | 30 | 1015.8 |
| 20260507090007 | 65 | 343 | 1.0 | 3.0 | 0.00 | 0.00 | 0.00 | 30 | 1016.1 |
| 20260507085306 | 65 | 255 | 2.0 | 5.0 | 0.00 | 0.00 | 0.00 | 30 | 1016.0 |
| 20260507084603 | 66 | 298 | 3.0 | 3.0 | 0.00 | 0.00 | 0.00 | 28 | 1016.1 |
| 20260507083902 | 66 | 248 | 1.0 | 5.0 | 0.00 | 0.00 | 0.00 | 30 | 1016.1 |
| 20260507083211 | 63 | 276 | 2.0 | 5.0 | 0.00 | 0.00 | 0.00 | 31 | 1016.2 |
| 20260507082509 | 63 | 255 | 3.0 | 7.0 | 0.00 | 0.00 | 0.00 | 28 | 1016.1 |
| 20260507081807 | 64 | 248 | 1.0 | 3.0 | 0.00 | 0.00 | 0.00 | 31 | 1016.2 |
| 20260507081106 | 61 | 287 | 2.0 | 3.0 | 0.00 | 0.00 | 0.00 | 29 | 1016.3 |
| 20260507080405 | 62 | 262 | 1.0 | 2.0 | 0.00 | 0.00 | 0.00 | 31 | 1016.4 |
| 20260507075703 | 64 | 333 | 2.0 | 3.0 | 0.00 | 0.00 | 0.00 | 31 | 1016.2 |
| 20260507075012 | 65 | 288 | 2.0 | 3.0 | 0.00 | 0.00 | 0.00 | 32 | 1016.2 |
| 20260507074310 | 65 | 340 | 2.0 | 3.0 | 0.00 | 0.00 | 0.00 | 32 | 1016.2 |
| 20260507073607 | 64 | 347 | 1.0 | 1.0 | 0.00 | 0.00 | 0.00 | 32 | 1016.4 |
| 20260507072905 | 64 | 309 | 3.0 | 5.0 | 0.00 | 0.00 | 0.00 | 33 | 1016.2 |
| 20260507072202 | 64 | 255 | 1.0 | 2.0 | 0.00 | 0.00 | 0.00 | 33 | 1016.2 |
| 20260507071512 | 66 | 311 | 6.0 | 6.0 | 0.00 | 0.00 | 0.00 | 32 | 1016.2 |
| 20260507070810 | 63 | 248 | 2.0 | 3.0 | 0.00 | 0.00 | 0.00 | 34 | 1016.3 |
| 20260507070108 | 63 | 242 | 1.0 | 2.0 | 0.00 | 0.00 | 0.00 | 36 | 1016.3 |
| 20260507065406 | 63 | 0 | 1.0 | 3.0 | 0.00 | 0.00 | 0.00 | 36 | 1016.2 |
| 20260507064704 | 63 | 266 | 3.0 | 3.0 | 0.00 | 0.00 | 0.00 | 36 | 1016.2 |
| 20260507064003 | 61 | 283 | 2.0 | 3.0 | 0.00 | 0.00 | 0.00 | 38 | 1016.2 |
| 20260507063312 | 60 | 246 | 1.0 | 5.0 | 0.00 | 0.00 | 0.00 | 41 | 1016.3 |
| 20260507062609 | 56 | 249 | 2.0 | 5.0 | 0.00 | 0.00 | 0.00 | 41 | 1016.3 |
| 20260507061907 | 55 | 248 | 2.0 | 3.0 | 0.00 | 0.00 | 0.00 | 43 | 1016.3 |
| 20260507061205 | 53 | 253 | 2.0 | 5.0 | 0.00 | 0.00 | 0.00 | 46 | 1016.3 |